Regional Weather Roundup
Issued by NWS Columbia, SC

Home | Current Version | Previous Version | Text Only | Print | Product List | Glossary On
Versions: 1 2 3 4 5 6 7 8 9 10 11 12 13 14 15 16 17 18 19 20 21 22 23 24 25 26 27 28 29 30 31 32 33 34 35 36 37 38 39 40 41 42 43 44 45 46 47 48 49 50
000
ASUS42 KCAE 231410
RWRCAE
REGIONAL WEATHER ROUNDUP
NATIONAL WEATHER SERVICE COLUMBIA SC
1000 AM EDT WED AUG 23 2017

NOTE: "FAIR" INDICATES FEW OR NO CLOUDS BELOW 12,000 FEET WITH NO
SIGNIFICANT WEATHER AND/OR OBSTRUCTIONS TO VISIBILITY.

NOT ALL STATIONS ARE QUALITY CONTROLLED BY THE NATIONAL
WEATHER SERVICE. USE DATA WITH CAUTION...ESPECIALLY
DEWPOINT OBSERVATIONS.

SCZ001>056-GAZ040-063>065-077-231500-
...UPSTATE SOUTH CAROLINA...

CITY           SKY/WX    TMP DP  RH WIND       PRES   REMARKS
ANDERSON       SUNNY     84  71  65 W10       29.94S
LIBERTY        SUNNY     81  73  75 CALM      29.93F
SPARTANBURG    SUNNY     81  72  74 NW3       29.93S
CLEMSON        SUNNY     82  73  74 W8        29.95S
GREENVILLE     SUNNY     83  72  69 W6        29.95S
GREENWOOD      SUNNY     82  74  76 W8        29.95S
GREER          SUNNY     82  72  71 W3        29.93S
ROCK HILL      SUNNY     81  75  82 W6        29.93S
CHESTER        SUNNY     81  70  69 W6        29.94R
LAURENS        SUNNY     81  72  74 SW8       29.93S


...CENTRAL SOUTH CAROLINA...

CITY           SKY/WX    TMP DP  RH WIND       PRES   REMARKS
COLUMBIA APT   MOSUNNY   87  73  62 SW7       29.91F
COLUMBIA OWENS SUNNY     85  75  72 S7        29.92F
MCENTIRE ANGB  MOSUNNY   84  74  70 SW7       29.93S
ORANGEBURG     SUNNY     83  74  74 SW7       29.94S
SUMTER SHAW    MOSUNNY   84  73  69 SW8       29.90F
NEWBERRY       SUNNY     82  73  74 SW8       29.96S
AIKEN          FAIR      81  73  78 SW6       29.98S
BARNWELL       FAIR      84  77  79 SW5       29.95S
MANNING        FAIR      82  55  39 CALM      29.94S
CAMDEN         FAIR      84  73  70 CALM      29.92F
LANCASTER      SUNNY     82  75  78 SW7       29.93S
WINNSBORO      SUNNY     82  73  74 W7        29.93R


...EASTERN AND COASTAL SOUTH CAROLINA...

CITY           SKY/WX    TMP DP  RH WIND       PRES   REMARKS
MYRTLE BEACH   SUNNY     84  75  74 SW8       29.93F
N MYRTLE BCH   SUNNY     83  75  77 W9        29.92F
CONWAY         FAIR      82  75  78 SW7       29.93F
MARION         FAIR      82  73  74 SW3       29.92S
HARTSVILLE     FAIR      82  73  74 SW5       29.92S
FLORENCE       SUNNY     83  75  77 SW7       29.92S
DARLINGTON     SUNNY     83  76  79 SW7       29.92S
CHARLESTON APT MOSUNNY   84  76  76 W8        29.94F
MOUNT PLEASANT FAIR      84  75  74 SW8       29.95S
WALTERBORO     SUNNY     82  73  74 SW8       29.96S
BEAUFORT       SUNNY     86  77  74 MISG      29.95S HX  97


...EASTERN GEORGIA...

CITY           SKY/WX    TMP DP  RH WIND       PRES   REMARKS
AUGUSTA BUSH F SUNNY     86  76  71 SW6       29.93F HX  96
AUGUSTA DANIEL SUNNY     85  72  65 VRB5      29.95S
THOMSON        SUNNY     84  74  73 NW6       29.99F
WASHINGTON     FAIR     N/A N/A N/A W10       29.95R
CLAXTON        FAIR      85  77  75 CALM      29.96S HX  95
SYLVANIA       SUNNY     84  78  81 W5        29.97S HX  95
STATESBORO     SUNNY     85  72  65 W5        29.96S
SAVANNAH       MOSUNNY   84  75  74 W5        29.96S


...SOUTHERN NORTH CAROLINA...

CITY           SKY/WX    TMP DP  RH WIND       PRES   REMARKS
CHARLOTTE      MOSUNNY   80  74  81 W6        29.93S
MONROE         SUNNY     80  72  76 W6        29.92R
WADESBORO      SUNNY     82  73  73 S5        29.90S
ROCKINGHAM     SUNNY     81  75  82 W5        29.91S
RUTHERFORDTON  SUNNY     79  70  73 CALM      29.95R
ASHEVILLE      PTSUNNY   77  68  73 NW10      30.01S

$$



USA.gov is the U.S. government's official web portal to all federal, state and local government web resources and services.